Regional Weather Roundup
Issued by NWS

Home | Current Version | Previous Version | Graphics & Text | Print | Product List | Glossary On
Versions: 1 2 3 4 5 6 7 8 9 10 11 12 13 14 15 16 17 18 19 20 21 22 23 24 25 26 27 28 29 30 31 32 33 34 35 36 37 38 39 40 41 42 43 44 45 46 47 48 49 50
000
ASUS43 KMKX 161210
RWRWI

WISCONSIN REGIONAL WEATHER ROUNDUP
NATIONAL WEATHER SERVICE MILWAUKEE/SULLIVAN WI
600 AM CST SAT DEC 16 2017

NOTE: "FAIR" INDICATES FEW OR NO CLOUDS BELOW 12,000 FEET WITH NO
SIGNIFICANT WEATHER AND/OR OBSTRUCTIONS TO VISIBILITY.

WIZ001-002-006>008-014>016-023>028-161300-
NORTHWEST WISCONSIN

CITY           SKY/WX    TMP DP  RH WIND       PRES   REMARKS
SUPERIOR ARPT  CLOUDY    15   9  76 E3        29.87R
6HR MIN TEMP:  13; 6HR MAX TEMP:  16;

ASHLAND        CLOUDY     5   2  87 E3        29.86R
6HR MIN TEMP:   4; 6HR MAX TEMP:  12;

HAYWARD        CLOUDY    15   9  76 NE8       29.81R WCI   4
6HR MIN TEMP:  14; 6HR MAX TEMP:  16; 6HR PCP:  0.01;

SIREN          CLOUDY    19  15  82 E7        29.79R WCI  10
6HR MIN TEMP:  19; 6HR MAX TEMP:  19;

CUMBERLAND     CLOUDY    19  16  86 E9        29.74S WCI   9
RICE LAKE      CLOUDY    20  17  87 E8        29.78R WCI  11
6HR MIN TEMP:  19; 6HR MAX TEMP:  21;

CHETEK         CLOUDY    20  17  86 E5        29.77R WCI  14
6HR MIN TEMP:  18; 6HR MAX TEMP:  20; 6HR PCP:  0.01;

LADYSMITH      CLOUDY    18  13  81 E9        29.80R WCI   6
6HR MIN TEMP:  17; 6HR MAX TEMP:  19;

EAU CLAIRE     CLOUDY    22  19  89 NE10      29.76R WCI  11
6HR MIN TEMP:  22; 6HR MAX TEMP:  23; 6HR PCP: TRACE;

MENOMONIE      CLOUDY    23  21  91 NE5       29.75R WCI  17
6HR MIN TEMP:  23; 6HR MAX TEMP:  25; 6HR PCP:  0.01;

NEW RICHMOND   CLOUDY    23  20  89 E8        29.73R WCI  14
OSCEOLA        CLOUDY    24  20  86 NE9       29.77R WCI  14
6HR MIN TEMP:  24; 6HR MAX TEMP:  25;

$$

WIZ003>005-009-010-017-018-161300-
NORTH CENTRAL WISCONSIN

CITY           SKY/WX    TMP DP  RH WIND       PRES   REMARKS
MANITOWISH WTR CLOUDY     2   1  93 CALM      29.82R
6HR MIN TEMP:   2; 6HR MAX TEMP:   9;

ARBOR VITAE    CLOUDY     6   2  86 SE3       29.81R
6HR MIN TEMP:   6; 6HR MAX TEMP:  11;

WOODRUFF       CLOUDY     6   2  86 SE3       29.81R
6HR MIN TEMP:   6; 6HR MAX TEMP:  11;

RHINELANDER    CLOUDY     7   5  91 E5        29.81R WCI  -2
6HR MIN TEMP:   4; 6HR MAX TEMP:  11; 6HR PCP: TRACE;

EAGLE RIVER    CLOUDY     3  -1  83 CALM      29.82R
6HR MIN TEMP:   3; 6HR MAX TEMP:  10;

LAND O LAKES   CLOUDY     9   6  88 CALM      29.83R
6HR MIN TEMP:   7; 6HR MAX TEMP:  10;

PHILLIPS       CLOUDY    11   8  88 E5        29.80R WCI   2
6HR MIN TEMP:   9; 6HR MAX TEMP:  13;

TOMAHAWK       CLOUDY    10   7  89 CALM      29.82R
6HR MIN TEMP:   8; 6HR MAX TEMP:  12;

MEDFORD        CLOUDY    15  11  85 E10       29.78R WCI   2
6HR MIN TEMP:  15; 6HR MAX TEMP:  16;

MERRILL        CLOUDY    14  10  83 E5        29.83R WCI   6
6HR MIN TEMP:  13; 6HR MAX TEMP:  14;

$$

WIZ029-030-035-036-043>047-161300-
CENTRAL WISCONSIN

CITY           SKY/WX    TMP DP  RH WIND       PRES   REMARKS
WAUSAU         CLOUDY    14   9  80 E8        29.82R WCI   3
6HR MIN TEMP:  13; 6HR MAX TEMP:  15; 6HR PCP:  0.03;

MOSINEE        CLOUDY    14  10  85 E10G17    29.83R WCI   1
MARSHFIELD     CLOUDY    17  13  84 E15       29.77R WCI   2
6HR MIN TEMP:  17; 6HR MAX TEMP:  19; 6HR PCP: TRACE;

STEVENS POINT  CLOUDY    14  11  89 E9G16     29.83R WCI   2
6HR MIN TEMP:  14; 6HR MAX TEMP:  16;

WAUPACA        CLOUDY    19  14  81 NE6       29.86R WCI  11
6HR MIN TEMP:  19; 6HR MAX TEMP:  21;

WAUTOMA        CLOUDY    18  14  84 NE10      29.84R WCI   6
6HR MIN TEMP:  18; 6HR MAX TEMP:  20;

WISC RAPIDS    CLOUDY    17  12  80 E15       29.82R WCI   2
6HR MIN TEMP:  17; 6HR MAX TEMP:  21; 6HR PCP:  0.02;

CAMP DOUGLAS   CLOUDY    25  23  93 E7        29.78R WCI  17
6HR MIN TEMP:  25; 6HR MAX TEMP:  28; 6HR PCP: TRACE;

$$

WIZ011>013-019>022-031-037>040-048>050-161300-
NORTHEAST WISCONSIN

CITY           SKY/WX    TMP DP  RH WIND       PRES   REMARKS
ANTIGO         CLOUDY    11   7  84 E7        29.82R WCI   1
6HR MIN TEMP:  10; 6HR MAX TEMP:  12;

SHAWANO        CLOUDY    16  12  84 NE5       29.88R WCI   9
6HR MIN TEMP:  15; 6HR MAX TEMP:  16;

OCONTO         CLOUDY    14   6  69 N3        29.89S
6HR MIN TEMP:  11; 6HR MAX TEMP:  14;

STURGEON BAY   CLOUDY    18  10  71 MISG      29.90R
6HR MIN TEMP:  16; 6HR MAX TEMP:  18; 6HR PCP: TRACE;

GREEN BAY      CLOUDY    18  14  84 NE7       29.88R WCI   9
6HR MIN TEMP:  16; 6HR MAX TEMP:  18; 6HR PCP:  0.05;

MANITOWOC      FLURRIES  18  16  93 N5        29.89R WCI  11
6HR MIN TEMP:  16; 6HR MAX TEMP:  18; 6HR PCP: TRACE;

APPLETON       CLOUDY    18  12  79 E12G17    29.83R WCI   5
CLINTONVILLE   CLOUDY    16  10  79 NE7       29.88R WCI   6
OSHKOSH        CLOUDY    19  15  84 NE12      29.84R WCI   7
6HR MIN TEMP:  19; 6HR MAX TEMP:  21; 6HR PCP:  0.04;

$$

WIZ032>034-041-042-053>061-161300-
SOUTHWEST WISCONSIN

CITY           SKY/WX    TMP DP  RH WIND       PRES   REMARKS
LA CROSSE      CLOUDY    33  27  78 CALM      29.74R
6HR MIN TEMP:  31; 6HR MAX TEMP:  33;

SPARTA         CLOUDY    29  28  94 E7        29.75S WCI  22
6HR MIN TEMP:  28; 6HR MAX TEMP:  29;

VIROQUA        CLOUDY    30  28  90 CALM      29.72R
6HR MIN TEMP:  29; 6HR MAX TEMP:  31;

BOSCOBEL       CLOUDY    29  24  82 CALM      29.76R
6HR MIN TEMP:  28; 6HR MAX TEMP:  37;

PRAIRIE DU CHI MOCLDY    33  22  63 S3        29.74R
6HR MIN TEMP:  32; 6HR MAX TEMP:  37;

PLATTEVILLE    PTCLDY    31  25  79 S9        29.75S WCI  22
6HR MIN TEMP:  28; 6HR MAX TEMP:  34;

$$

WIZ056-057-062-063-064-067-068-161300-
SOUTH CENTRAL WISCONSIN

CITY           SKY/WX    TMP DP  RH WIND       PRES   REMARKS
REEDSBURG      CLOUDY    27  27 100 E3        29.77R
6HR MIN TEMP:  27; 6HR MAX TEMP:  29;

BARABOO/DELLS  CLOUDY    25  24  96 NE6       29.78R WCI  18
6HR MIN TEMP:  25; 6HR MAX TEMP:  29;

LONE ROCK      CLOUDY    32  27  81 CALM      29.77R
6HR MIN TEMP:  31; 6HR MAX TEMP:  36;

MINERAL POINT  PTCLDY    32  27  80 S7        29.74S WCI  26
MADISON        CLOUDY    33  24  69 S6        29.77R WCI  28
6HR MIN TEMP:  30; 6HR MAX TEMP:  34;

MIDDLETON      CLOUDY    35  24  64 S3        29.76S
6HR MIN TEMP:  34; 6HR MAX TEMP:  36;

WATERTOWN      CLOUDY    31  28  90 E6        29.78R WCI  25
6HR MIN TEMP:  29; 6HR MAX TEMP:  32;

MONROE         CLOUDY    32  23  69 S9        29.76S WCI  24
JANESVILLE     CLOUDY    36  25  64 SW6       29.79R WCI  31
$$

WIZ051-052-058>065-066-070>072-161300-
SOUTHEAST WISCONSIN

CITY           SKY/WX    TMP DP  RH WIND       PRES   REMARKS
MILWAUKEE      CLOUDY    32  26  78 CALM      29.81S
6HR MIN TEMP:  31; 6HR MAX TEMP:  36;

WAUKESHA       CLOUDY    28  25  86 NE7       29.80F WCI  21
MILWAUKEE/TIMM CLOUDY    30  28  93 CALM      29.82S FOG
RACINE         CLOUDY    35  25  66 SW6       29.83R WCI  30
6HR MIN TEMP:  32; 6HR MAX TEMP:  35;

BURLINGTON     CLOUDY    33  26  74 S6        29.79F WCI  28
6HR MIN TEMP:  33; 6HR MAX TEMP:  34;

KENOSHA        CLOUDY    36  24  62 SW7       29.81R WCI  30
6HR MIN TEMP:  34; 6HR MAX TEMP:  36;

FOND DU LAC    CLOUDY    22  17  81 NE9       29.83R WCI  12
6HR MIN TEMP:  22; 6HR MAX TEMP:  25; 6HR PCP:  0.04;

SHEBOYGAN      LGT SNOW  21  20  96 N9        29.85R FOG     WCI  11
6HR MIN TEMP:  19; 6HR MAX TEMP:  21; 6HR PCP:  0.05;

WEST BEND      CLOUDY    27  27 100 NE6       29.81F WCI  20
JUNEAU         CLOUDY    27  25  91 E8        29.80R WCI  19
6HR MIN TEMP:  27; 6HR MAX TEMP:  29;

$$

LSZ147-162-161300-
LAKE SUPERIOR

STATION/POSITION TIME  TEMP    WIND        PRES    WAVE
                       AIR SEA DIR/SP/G            HT/PER
                 (UTC) (F)     (DEG/KT/KT) (MB)    (FT/S)
DEVILS ISLAND    1200   23      80/ 21/ 25 1012.6R
SAXON HARBOR     1130   12                 1011.2R
$$

LMZ867-665-643>646-161300-
LAKE MICHIGAN

STATION/POSITION TIME  TEMP    WIND        PRES    WAVE
                       AIR SEA DIR/SP/G            HT/PER
                 (UTC) (F)     (DEG/KT/KT) (MB)    (FT/S)
NORTHPORT PIER   1140



USA.gov is the U.S. government's official web portal to all federal, state and local government web resources and services.